Location: Luxembourg
(49.6117°N, 6.1300°E)
Time: 13:33:49
(UTC+01:00)

ISS - Pass Details

Date: 24 January 2019
Orbit: 403 x 411 km, 51.6° (Epoch: 20 February)

Event Time Altitude Azimuth Distance (km) Brightness Sun altitude
Rises 19:17:08 0° 226° (SW) 2,326 0.9 -19.2°
Reaches altitude 10° 19:19:17 10° 218° (SW) 1,470 -0.4 -19.5°
Enters shadow 19:21:51 35° 173° (S) 686 -2.8 -19.9°
